QPF
0.00 0.00 0.00 0.00 0.00 0.00 0.00 0.00 0.00 0.00 0.00 0.00 0.00 0.00 0.00 0.00 0.00 0.00 0.00 0.00 0.00 0.00 0.00 0.00 0.00 0.00 0.00 0.00 0.00 0.00 0.00 0.00 0.00 0.00 0.00 0.00 0.00 0.00 0.00 0.00 0.00 0.00 0.00
0.00 0.00 0.00 0.00 0.00 0.00 0.00 0.00 0.00 0.00 0.00 0.00 0.00 0.00 0.00 0.00 0.00 0.00 0.00 0.00 0.00 0.00 0.00 0.00 0.00 0.00 0.00 0.00 0.00 0.00 0.00 0.00 0.00 0.00 0.00 0.00 0.00 0.00 0.00 0.00 0.00 0.00 0.00
0.00 0.00 0.00 0.00 0.00 0.00 0.00 0.00 0.00 0.00 0.00 0.00 0.00 0.00 0.00 0.00 0.00 0.00 0.00 0.00 0.00 0.00 0.00 0.00 0.00 0.00 0.00 0.00 0.00 0.00 0.00 0.00 0.00 0.00 0.01 0.01 0.00 0.00 0.00 0.00 0.00 0.00 0.00
0.00 0.00 0.00 0.00 0.00 0.00 0.00 0.00 0.00 0.00 0.00 0.00 0.00 0.00 0.00 0.00 0.00 0.00 0.00 0.00 0.00 0.00 0.00 0.00 0.00 0.00 0.00 0.00 0.00 0.00 0.00 0.00 0.00 0.01 0.03 0.02 0.03 0.01 0.00 0.00 0.01 0.00 0.00
0.00 0.00 0.00 0.00 0.00 0.00 0.00 0.00 0.00 0.00 0.00 0.00 0.00 0.00 0.00 0.00 0.00 0.00 0.00 0.00 0.00 0.00 0.00 0.00 0.00 0.00 0.00 0.00 0.00 0.00 0.00 0.00 0.00 0.01 0.06 0.06 0.01 0.01 0.01 0.01 0.01 0.00 0.00
0.00 0.00 0.00 0.00 0.00 0.00 0.00 0.00 0.00 0.00 0.00 0.00 0.00 0.00 0.00 0.00 0.00 0.00 0.00 0.00 0.00 0.00 0.00 0.00 0.00 0.00 0.00 0.00 0.00 0.00 0.00 0.00 0.00 0.00 0.03 0.05 0.01 0.03 0.01 0.02 0.00 0.00 0.00
0.00 0.00 0.00 0.00 0.00 0.00 0.00 0.00 0.00 0.00 0.00 0.00 0.00 0.00 0.00 0.00 0.00 0.00 0.00 0.00 0.00 0.00 0.00 0.00 0.00 0.00 0.00 0.00 0.00 0.00 0.00 0.00 0.00 0.00 0.11 0.15 0.07 0.06 0.04 0.01 0.00 0.00 0.00
0.00 0.00 0.00 0.00 0.00 0.00 0.00 0.00 0.00 0.00 0.00 0.00 0.00 0.00 0.00 0.00 0.00 0.00 0.00 0.00 0.00 0.00 0.00 0.00 0.00 0.00 0.00 0.00 0.00 0.00 0.00 0.00 0.00 0.00 0.07 0.14 0.05 0.05 0.06 0.02 0.01 0.00 0.00
0.00 0.00 0.00 0.00 0.00 0.00 0.00 0.00 0.00 0.00 0.00 0.00 0.00 0.00 0.00 0.00 0.00 0.00 0.00 0.00 0.00 0.00 0.00 0.00 0.00 0.00 0.00 0.00 0.00 0.00 0.00 0.00 0.00 0.00 0.01 0.05 0.05 0.03 0.02 0.02 0.01 0.00 0.00
0.00 0.00 0.00 0.00 0.00 0.00 0.00 0.00 0.00 0.00 0.00 0.00 0.00 0.00 0.00 0.01 0.02 0.02 0.00 0.00 0.00 0.00 0.00 0.00 0.01 0.00 0.00 0.00 0.00 0.00 0.00 0.00 0.00 0.00 0.00 0.00 0.01 0.04 0.03 0.01 0.00 0.00 0.00
0.00 0.00 0.00 0.00 0.01 0.03 0.02 0.00 0.03 0.02 0.00 0.00 0.00 0.00 0.00 0.00 0.01 0.05 0.06 0.03 0.02 0.02 0.01 0.00 0.01 0.01 0.00 0.00 0.00 0.00 0.00 0.00 0.00 0.00 0.00 0.00 0.00 0.03 0.03 0.01 0.00 0.00 0.00
0.00 0.00 0.00 0.00 0.00 0.00 0.00 0.02 0.05 0.12 0.07 0.05 0.02 0.00 0.00 0.01 0.00 0.00 0.05 0.09 0.16 0.14 0.03 0.00 0.00 0.01 0.04 0.00 0.00 0.00 0.00 0.00 0.00 0.00 0.00 0.00 0.00 0.04 0.04 0.01 0.00 0.00 0.00
0.00 0.00 0.00 0.00 0.00 0.00 0.00 0.01 0.03 0.31 0.41 0.20 0.16 0.12 0.03 0.02 0.01 0.03 0.07 0.14 0.18 0.15 0.05 0.02 0.01 0.04 0.06 0.03 0.02 0.00 0.00 0.00 0.00 0.00 0.00 0.00 0.01 0.04 0.03 0.02 0.00 0.00 0.00
0.00 0.00 0.00 0.00 0.00 0.00 0.00 0.00 0.01 0.07 0.11 0.13 0.10 0.06 0.02 0.00 0.01 0.04 0.06 0.10 0.12 0.09 0.07 0.16 0.24 0.13 0.15 0.13 0.14 0.08 0.05 0.03 0.01 0.01 0.00 0.00 0.00 0.01 0.02 0.01 0.00 0.00 0.00
0.00 0.00 0.00 0.00 0.00 0.00 0.00 0.00 0.00 0.00 0.01 0.01 0.00 0.00 0.00 0.00 0.00 0.00 0.01 0.05 0.09 0.13 0.23 0.22 0.40 0.40 0.43 0.39 0.70 0.74 0.41 0.16 0.13 0.07 0.00 0.00 0.00 0.01 0.04 0.02 0.00 0.00 0.00
0.00 0.00 0.00 0.00 0.00 0.00 0.00 0.00 0.00 0.00 0.00 0.00 0.00 0.00 0.00 0.00 0.00 0.00 0.00 0.00 0.01 0.04 0.07 0.10 0.21 0.32 0.34 0.77 2.00 2.30 1.34 0.42 0.27 0.19 0.11 0.06 0.01 0.00 0.01 0.02 0.00 0.00 0.00
0.00 0.00 0.00 0.00 0.00 0.00 0.00 0.00 0.00 0.00 0.00 0.00 0.00 0.00 0.00 0.00 0.00 0.00 0.00 0.00 0.00 0.00 0.00 0.01 0.06 0.09 0.13 0.27 0.70 1.38 1.13 0.56 0.42 0.30 0.33 0.18 0.09 0.03 0.01 0.01 0.00 0.00 0.00
0.00 0.00 0.00 0.00 0.00 0.00 0.00 0.00 0.00 0.00 0.00 0.00 0.00 0.00 0.00 0.00 0.00 0.00 0.00 0.00 0.00 0.00 0.00 0.00 0.00 0.02 0.04 0.06 0.03 0.09 0.24 0.45 0.17 0.08 0.14 0.22 0.21 0.13 0.13 0.08 0.03 0.02 0.02
0.00 0.00 0.00 0.00 0.00 0.00 0.00 0.00 0.00 0.00 0.00 0.00 0.00 0.00 0.00 0.00 0.00 0.00 0.00 0.00 0.00 0.00 0.00 0.00 0.00 0.01 0.00 0.00 0.02 0.02 0.02 0.05 0.07 0.06 0.06 0.06 0.11 0.13 0.11 0.18 0.14 0.09 0.05
0.00 0.00 0.00 0.00 0.00 0.00 0.00 0.00 0.00 0.00 0.00 0.00 0.00 0.00 0.00 0.00 0.00 0.00 0.00 0.00 0.00 0.00 0.00 0.00 0.00 0.00 0.00 0.00 0.00 0.01 0.02 0.02 0.05 0.09 0.06 0.06 0.04 0.05 0.07 0.11 0.12 0.14 0.11
0.00 0.00 0.00 0.00 0.00 0.00 0.00 0.00 0.00 0.00 0.00 0.00 0.00 0.00 0.00 0.00 0.00 0.00 0.00 0.00 0.00 0.00 0.00 0.00 0.00 0.00 0.00 0.00 0.00 0.00 0.00 0.00 0.00 0.00 0.00 0.00 0.00 0.00 0.02 0.06 0.10 0.08 0.09
0.00 0.00 0.00 0.00 0.00 0.00 0.00 0.00 0.00 0.00 0.00 0.00 0.00 0.00 0.00 0.00 0.00 0.00 0.00 0.00 0.00 0.00 0.00 0.00 0.00 0.00 0.00 0.00 0.00 0.00 0.00 0.00 0.00 0.00 0.00 0.00 0.00 0.01 0.02 0.04 0.06 0.08 0.07
0.00 0.00 0.00 0.00 0.00 0.00 0.00 0.00 0.00 0.00 0.00 0.00 0.00 0.00 0.00 0.00 0.00 0.00 0.00 0.00 0.00 0.00 0.00 0.00 0.00 0.00 0.00 0.00 0.00 0.00 0.00 0.00 0.00 0.00 0.00 0.00 0.00 0.00 0.00 0.00 0.01 0.02 0.07
0.00 0.00 0.00 0.00 0.00 0.00 0.00 0.00 0.00 0.00 0.00 0.00 0.00 0.00 0.00 0.00 0.00 0.00 0.00 0.00 0.00 0.00 0.00 0.00 0.00 0.00 0.00 0.00 0.00 0.00 0.00 0.00 0.00 0.00 0.00 0.00 0.00 0.00 0.00 0.00 0.00 0.01 0.02
0.00 0.00 0.00 0.00 0.00 0.00 0.00 0.00 0.00 0.00 0.00 0.00 0.00 0.00 0.00 0.00 0.00 0.00 0.00 0.00 0.00 0.00 0.00 0.00 0.00 0.00 0.00 0.00 0.00 0.00 0.00 0.00 0.00 0.00 0.00 0.00 0.00 0.00 0.00 0.00 0.00 0.01 0.02
0.00 0.00 0.00 0.00 0.00 0.00 0.00 0.00 0.00 0.00 0.00 0.00 0.00 0.00 0.00 0.00 0.00 0.00 0.00 0.00 0.00 0.00 0.00 0.00 0.00 0.00 0.00 0.00 0.00 0.00 0.00 0.00 0.00 0.00 0.00 0.00 0.00 0.00 0.00 0.00 0.00 0.00 0.00
MSLP
1010.62 1010.73 1010.70 1010.60 1010.88 1011.24 1011.50 1011.74 1011.72 1011.88 1012.21 1012.51 1012.80 1013.06 1013.27 1013.50 1013.82 1013.96 1014.09 1014.11 1014.19 1014.17 1014.21 1014.41 1014.63 1014.70 1014.96 1015.18 1015.42 1015.57 1015.57 1015.61 1015.70 1015.71 1015.76 1015.88 1015.99 1016.11 1016.24 1016.41 1016.61 1016.77 1017.04
1010.34 1010.98 1010.98 1010.75 1010.93 1011.20 1011.58 1011.88 1012.19 1012.27 1012.33 1012.57 1012.89 1013.17 1013.41 1013.64 1013.84 1014.08 1014.29 1014.41 1014.47 1014.46 1014.48 1014.60 1014.71 1014.84 1014.92 1015.13 1015.44 1015.59 1015.62 1015.67 1015.94 1015.76 1015.70 1015.93 1016.06 1016.22 1016.40 1016.53 1016.71 1016.96 1017.10
1010.13 1010.98 1011.04 1011.02 1011.21 1011.31 1011.59 1011.87 1012.20 1012.48 1012.60 1012.70 1012.91 1013.10 1013.39 1013.67 1013.95 1014.15 1014.32 1014.48 1014.60 1014.70 1014.74 1014.81 1014.89 1014.85 1014.96 1015.25 1015.49 1015.64 1015.76 1015.86 1015.92 1015.72 1015.89 1015.98 1016.14 1016.22 1016.31 1016.43 1016.85 1017.19 1017.24
1009.77 1010.53 1011.05 1011.18 1011.31 1011.40 1011.62 1011.85 1012.11 1012.44 1012.64 1012.74 1012.95 1013.25 1013.50 1013.71 1013.98 1014.25 1014.46 1014.57 1014.74 1014.78 1014.82 1014.90 1014.98 1015.02 1015.06 1015.28 1015.56 1015.70 1015.70 1015.88 1016.08 1015.87 1016.05 1016.05 1015.93 1016.22 1016.31 1016.63 1016.89 1017.08 1017.49
1010.26 1010.55 1011.01 1011.19 1011.37 1011.62 1011.79 1011.96 1012.15 1012.45 1012.72 1012.91 1012.99 1013.13 1013.43 1013.66 1013.90 1014.19 1014.46 1014.66 1014.77 1014.83 1014.95 1014.93 1014.99 1015.07 1015.14 1015.37 1015.62 1015.70 1015.75 1015.97 1016.08 1015.88 1016.21 1015.98 1015.95 1016.15 1016.27 1016.60 1016.94 1017.11 1017.52
1010.75 1010.91 1011.24 1011.35 1011.58 1011.82 1012.03 1012.22 1012.38 1012.46 1012.64 1012.93 1013.12 1013.16 1013.18 1013.39 1013.67 1014.04 1014.25 1014.47 1014.68 1014.79 1014.87 1014.95 1014.96 1015.08 1015.14 1015.39 1015.60 1015.62 1015.72 1015.94 1015.89 1016.00 1015.83 1015.81 1016.10 1015.80 1015.94 1016.42 1016.72 1017.02 1017.46
1011.09 1011.22 1011.43 1011.50 1011.57 1011.76 1012.00 1012.26 1012.44 1012.51 1012.59 1012.69 1012.95 1013.03 1013.19 1013.26 1013.47 1013.76 1014.08 1014.17 1014.38 1014.45 1014.51 1014.61 1014.74 1014.91 1015.07 1015.28 1015.61 1015.72 1015.71 1015.85 1015.68 1015.99 1015.66 1015.54 1015.65 1015.65 1015.79 1016.19 1016.52 1016.79 1017.12
1011.32 1011.44 1011.46 1011.66 1011.89 1012.06 1012.17 1012.29 1012.38 1012.66 1012.87 1013.12 1013.24 1013.36 1013.35 1013.22 1013.24 1013.44 1013.80 1013.99 1014.15 1014.24 1014.32 1014.42 1014.59 1014.71 1014.86 1015.08 1015.42 1015.60 1015.67 1015.81 1015.49 1015.92 1015.79 1015.48 1015.33 1015.58 1015.48 1016.00 1016.33 1016.76 1017.02
1011.54 1011.74 1011.96 1011.77 1011.78 1011.87 1012.03 1012.21 1012.54 1012.96 1013.27 1013.50 1013.55 1013.66 1013.77 1013.67 1013.46 1013.24 1013.46 1013.78 1014.03 1014.03 1014.12 1014.23 1014.41 1014.60 1014.79 1014.86 1015.07 1015.36 1015.49 1015.52 1015.47 1015.47 1015.42 1015.28 1015.27 1015.21 1014.99 1015.44 1016.13 1016.49 1017.02
1012.73 1013.06 1013.31 1013.11 1013.02 1012.81 1012.07 1012.23 1012.57 1012.95 1013.26 1013.34 1013.37 1013.40 1013.54 1013.61 1013.50 1013.47 1013.16 1013.56 1013.79 1013.93 1013.95 1013.98 1014.09 1014.35 1014.46 1014.68 1014.91 1015.07 1015.14 1015.28 1015.40 1015.47 1015.20 1015.04 1014.96 1015.18 1015.11 1015.28 1015.92 1016.27 1016.63
1013.55 1013.70 1013.63 1013.79 1013.69 1013.34 1012.75 1012.81 1012.86 1012.97 1012.81 1012.94 1013.37 1013.53 1013.44 1013.30 1013.43 1013.47 1013.09 1013.08 1013.51 1013.64 1013.77 1013.69 1013.78 1013.88 1014.03 1014.24 1014.48 1014.74 1015.04 1015.21 1015.25 1015.01 1014.91 1014.44 1014.44 1014.62 1014.88 1015.30 1015.57 1015.88 1016.22
1014.56 1014.62 1014.54 1014.19 1013.87 1013.41 1013.30 1013.67 1013.42 1013.34 1013.33 1013.44 1013.47 1013.95 1013.56 1013.27 1013.32 1013.34 1013.00 1012.76 1012.90 1013.15 1013.07 1013.11 1013.10 1013.28 1013.72 1013.80 1014.01 1014.34 1014.49 1014.56 1014.60 1014.39 1014.43 1014.27 1014.25 1014.04 1014.36 1014.80 1015.33 1015.46 1015.91
1015.53 1015.49 1015.42 1015.12 1014.66 1014.19 1014.04 1014.37 1014.25 1013.75 1013.55 1013.44 1014.56 1014.45 1013.80 1013.42 1013.38 1013.68 1013.22 1012.81 1012.80 1012.79 1012.82 1012.87 1012.98 1013.22 1013.05 1013.31 1013.66 1013.86 1014.08 1014.23 1014.26 1013.74 1013.81 1013.80 1013.57 1013.73 1013.91 1014.48 1014.86 1015.08 1015.50
1016.08 1016.22 1016.11 1015.83 1015.43 1014.92 1014.79 1014.98 1015.03 1014.82 1014.97 1015.14 1015.20 1014.99 1014.61 1014.24 1014.48 1014.44 1013.88 1013.30 1013.34 1013.17 1012.93 1012.69 1012.60 1012.73 1012.76 1012.52 1012.79 1013.32 1014.38 1014.24 1013.88 1013.45 1013.23 1013.41 1013.45 1013.32 1013.44 1013.88 1014.20 1014.45 1014.96
1016.95 1017.12 1016.84 1016.64 1016.22 1015.65 1015.33 1015.50 1015.63 1015.64 1015.28 1015.42 1015.48 1015.32 1015.14 1014.98 1015.22 1014.88 1014.19 1013.85 1013.76 1013.73 1013.73 1013.37 1013.11 1012.86 1012.44 1012.42 1013.20 1012.41 1014.18 1014.87 1013.89 1013.14 1012.87 1012.84 1013.22 1013.03 1013.19 1013.36 1013.49 1013.58 1014.06
1017.39 1017.59 1017.39 1017.07 1016.64 1016.26 1016.01 1015.67 1015.84 1015.79 1015.70 1015.89 1015.78 1016.00 1015.72 1015.67 1015.63 1015.29 1014.50 1014.23 1014.11 1014.07 1013.66 1013.48 1013.17 1013.14 1013.10 1013.14 1013.45 1011.78 1012.87 1013.01 1013.22 1013.14 1012.94 1012.43 1012.87 1012.82 1012.64 1012.54 1012.89 1012.97 1013.19
1017.97 1018.01 1017.97 1017.64 1017.16 1016.70 1016.54 1016.13 1015.87 1015.78 1015.86 1016.22 1016.39 1016.27 1016.23 1016.27 1015.90 1015.39 1015.18 1014.91 1014.75 1014.27 1013.73 1013.58 1013.38 1013.04 1013.10 1013.03 1013.19 1012.52 1012.53 1012.50 1012.13 1012.42 1010.25 1012.60 1012.60 1012.84 1012.42 1012.16 1012.18 1012.35 1012.67
1018.31 1018.54 1018.49 1018.21 1017.81 1017.50 1017.06 1016.85 1016.56 1016.30 1016.27 1016.52 1016.62 1016.64 1016.60 1016.36 1016.17 1016.02 1016.06 1015.78 1015.18 1014.62 1014.35 1014.16 1013.92 1013.65 1013.19 1013.04 1013.05 1013.49 1013.04 1012.99 1010.88 1011.42 1012.09 1012.13 1012.24 1012.52 1012.66 1012.52 1012.41 1012.08 1012.22
1018.44 1018.81 1018.82 1018.49 1018.12 1017.91 1017.84 1017.60 1017.35 1017.00 1016.95 1017.06 1017.16 1017.21 1017.11 1016.86 1016.82 1016.79 1016.73 1016.46 1015.92 1015.60 1015.20 1014.91 1014.50 1014.22 1013.70 1013.02 1012.60 1012.17 1012.00 1011.94 1011.52 1011.64 1011.57 1011.25 1011.23 1011.51 1011.81 1012.01 1012.06 1012.17 1012.14
1018.56 1018.94 1019.06 1018.86 1018.55 1018.21 1018.01 1017.93 1018.00 1017.95 1017.84 1017.70 1017.91 1017.88 1017.65 1017.56 1017.42 1017.35 1017.17 1017.08 1016.78 1016.45 1016.02 1015.76 1015.38 1014.74 1014.37 1013.75 1012.76 1012.28 1011.80 1011.74 1011.71 1011.69 1011.33 1010.68 1010.58 1010.77 1010.82 1011.18 1011.42 1011.72 1011.78
1018.77 1019.30 1019.46 1019.49 1019.19 1018.89 1018.54 1018.53 1018.57 1018.86 1018.82 1018.62 1018.51 1018.43 1018.16 1018.06 1017.80 1017.73 1017.82 1017.84 1017.62 1017.46 1017.29 1016.89 1016.30 1015.62 1014.64 1014.52 1013.58 1012.72 1011.82 1011.30 1011.18 1010.82 1010.32 1010.13 1010.32 1010.31 1010.24 1010.27 1010.47 1010.61 1010.90
1018.89 1019.36 1019.48 1019.79 1019.81 1019.58 1019.40 1019.21 1019.21 1019.10 1019.40 1019.35 1019.30 1019.10 1019.13 1018.92 1018.78 1018.90 1018.98 1018.84 1018.64 1018.50 1018.16 1017.75 1017.38 1016.90 1016.21 1015.61 1015.27 1014.19 1012.97 1011.76 1011.05 1010.38 1010.03 1009.92 1010.04 1009.98 1009.93 1009.77 1009.67 1009.58 1009.80
1019.16 1019.51 1019.50 1019.73 1020.09 1020.06 1019.88 1019.73 1019.62 1019.62 1019.66 1019.96 1020.21 1020.13 1020.02 1019.80 1020.01 1019.92 1019.76 1019.71 1019.47 1019.18 1019.02 1018.75 1018.37 1017.87 1017.49 1016.80 1016.43 1015.93 1014.55 1013.33 1012.35 1010.72 1010.22 1010.19 1010.18 1009.87 1009.56 1009.34 1009.18 1009.04 1008.93
1019.38 1019.54 1019.60 1019.94 1020.23 1020.47 1020.50 1020.42 1020.57 1020.79 1020.85 1021.11 1021.13 1021.11 1020.80 1020.68 1020.63 1020.58 1020.44 1020.26 1020.00 1019.65 1019.35 1019.08 1018.79 1018.45 1018.03 1017.45 1016.86 1015.96 1016.26 1015.76 1014.04 1012.26 1010.66 1010.14 1009.90 1009.84 1009.44 1009.00 1008.80 1008.50 1008.42
1019.28 1019.80 1019.90 1020.18 1020.55 1020.65 1020.80 1020.87 1021.18 1021.46 1021.60 1021.71 1021.75 1021.62 1021.58 1021.39 1021.17 1020.99 1020.75 1020.46 1020.20 1020.00 1019.78 1019.46 1019.15 1018.87 1018.54 1018.18 1017.71 1017.32 1016.57 1015.56 1014.90 1014.11 1012.06 1011.12 1010.73 1009.82 1009.20 1008.94 1008.54 1008.13 1007.61
1019.33 1019.76 1020.02 1020.32 1020.71 1020.88 1021.05 1021.37 1021.66 1022.00 1022.17 1022.34 1022.39 1022.30 1022.12 1021.88 1021.62 1021.34 1021.06 1020.78 1020.53 1020.24 1019.89 1019.65 1019.40 1019.03 1018.76 1018.47 1018.06 1017.50 1017.06 1016.52 1015.81 1015.42 1014.12 1012.50 1011.76 1010.01 1009.49 1008.90 1008.20 1007.82 1007.49
Thickness
5787 5788 5789 5790 5787 5782 5779 5775 5775 5773 5768 5764 5760 5757 5754 5751 5748 5746 5744 5743 5741 5741 5740 5738 5735 5734 5732 5730 5727 5725 5725 5723 5721 5719 5717 5715 5714 5713 5711 5708 5705 5702 5698
5788 5783 5784 5786 5784 5780 5776 5772 5768 5766 5765 5762 5758 5754 5751 5748 5745 5743 5740 5738 5736 5736 5736 5735 5733 5732 5731 5728 5724 5722 5721 5720 5715 5716 5716 5715 5713 5711 5708 5706 5704 5700 5697
5789 5781 5781 5782 5779 5777 5773 5769 5765 5762 5760 5759 5756 5753 5749 5745 5742 5740 5738 5735 5733 5732 5732 5731 5730 5730 5729 5725 5722 5719 5717 5716 5713 5714 5714 5715 5712 5709 5709 5706 5701 5696 5696
5790 5782 5778 5777 5774 5772 5770 5767 5764 5760 5757 5756 5754 5749 5746 5743 5739 5735 5733 5732 5730 5729 5728 5727 5726 5726 5726 5723 5719 5716 5716 5713 5711 5713 5711 5712 5711 5707 5705 5703 5699 5696 5691
5780 5778 5774 5772 5770 5767 5764 5763 5760 5756 5753 5750 5750 5748 5744 5740 5737 5733 5730 5728 5726 5725 5723 5724 5723 5723 5723 5720 5716 5714 5712 5711 5710 5711 5709 5710 5710 5707 5705 5702 5697 5694 5688
5774 5772 5768 5766 5763 5761 5759 5756 5754 5753 5750 5746 5744 5743 5742 5739 5736 5731 5729 5726 5723 5722 5720 5720 5721 5720 5720 5717 5713 5711 5709 5708 5708 5707 5709 5708 5707 5708 5706 5702 5698 5693 5687
5765 5763 5761 5761 5760 5759 5756 5752 5750 5748 5746 5744 5740 5738 5736 5735 5733 5730 5727 5725 5722 5720 5719 5718 5718 5717 5716 5714 5710 5707 5705 5705 5706 5703 5706 5708 5707 5705 5705 5701 5697 5692 5689
5755 5754 5756 5755 5753 5751 5749 5747 5745 5741 5738 5735 5733 5731 5730 5731 5730 5728 5724 5722 5720 5718 5717 5715 5714 5714 5712 5711 5707 5704 5702 5700 5703 5699 5699 5703 5706 5702 5703 5699 5696 5690 5686
5745 5748 5748 5750 5748 5746 5743 5742 5738 5733 5729 5726 5724 5722 5721 5722 5724 5724 5721 5718 5715 5715 5714 5712 5710 5708 5706 5706 5705 5703 5701 5700 5700 5702 5699 5700 5701 5701 5703 5699 5693 5688 5682
5738 5737 5733 5731 5730 5731 5737 5736 5732 5726 5720 5720 5720 5720 5718 5717 5717 5717 5718 5714 5711 5709 5709 5709 5707 5704 5703 5702 5701 5699 5699 5697 5695 5696 5699 5699 5696 5695 5696 5695 5688 5686 5683
5727 5725 5724 5723 5722 5722 5725 5723 5719 5717 5719 5718 5714 5712 5714 5716 5714 5711 5713 5713 5708 5706 5705 5705 5704 5702 5700 5699 5698 5695 5693 5691 5690 5691 5693 5696 5698 5693 5691 5689 5687 5686 5684
5710 5711 5713 5714 5715 5719 5717 5711 5709 5707 5710 5711 5711 5701 5707 5710 5709 5708 5708 5709 5707 5705 5706 5705 5704 5702 5697 5697 5695 5691 5692 5690 5689 5690 5689 5691 5690 5692 5690 5687 5687 5685 5682
5698 5699 5699 5701 5704 5708 5707 5701 5700 5700 5703 5704 5696 5689 5698 5702 5703 5698 5701 5702 5702 5701 5701 5699 5697 5694 5694 5693 5689 5686 5684 5683 5684 5690 5689 5689 5690 5689 5690 5686 5683 5683 5680
5689 5687 5688 5689 5692 5696 5695 5689 5686 5686 5681 5683 5681 5682 5687 5691 5687 5686 5689 5691 5691 5691 5691 5693 5693 5689 5689 5690 5684 5676 5664 5666 5674 5681 5688 5687 5685 5685 5684 5685 5683 5682 5679
5677 5675 5676 5677 5678 5681 5684 5680 5674 5671 5673 5669 5670 5672 5674 5675 5673 5675 5678 5679 5678 5678 5678 5679 5679 5679 5681 5679 5664 5652 5653 5655 5667 5671 5682 5683 5681 5684 5683 5682 5682 5683 5680
5668 5664 5664 5664 5666 5666 5668 5669 5665 5661 5659 5656 5655 5652 5656 5657 5657 5659 5665 5666 5667 5666 5668 5667 5669 5669 5668 5667 5659 5640 5655 5653 5660 5666 5670 5678 5678 5681 5683 5684 5679 5680 5680
5653 5650 5648 5649 5651 5654 5653 5653 5653 5651 5649 5643 5640 5640 5640 5639 5641 5645 5649 5652 5652 5653 5656 5657 5658 5661 5658 5657 5649 5651 5656 5663 5667 5668 5665 5670 5670 5669 5676 5681 5681 5679 5677
5639 5635 5634 5634 5634 5635 5638 5637 5636 5638 5638 5634 5630 5628 5627 5628 5627 5629 5630 5632 5635 5639 5641 5642 5643 5644 5646 5645 5647 5637 5648 5651 5677 5672 5669 5663 5667 5667 5665 5670 5672 5674 5673
5627 5622 5621 5622 5623 5622 5620 5619 5618 5620 5621 5619 5616 5613 5613 5613 5613 5613 5613 5615 5618 5619 5622 5625 5626 5627 5628 5636 5639 5643 5644 5647 5658 5658 5662 5663 5664 5668 5666 5666 5666 5666 5667
5617 5612 5609 5609 5609 5610 5609 5606 5601 5600 5603 5602 5600 5597 5598 5597 5598 5597 5598 5598 5598 5600 5604 5605 5606 5610 5609 5612 5623 5629 5635 5637 5642 5647 5653 5662 5662 5664 5666 5665 5663 5662 5663
5604 5598 5595 5592 5593 5593 5593 5590 5587 5582 5581 5580 5582 5578 5582 5580 5582 5583 5582 5578 5578 5578 5580 5583 5587 5589 5594 5591 5599 5612 5622 5628 5632 5639 5645 5650 5653 5656 5659 5661 5663 5665 5663
5592 5587 5583 5577 5574 5574 5572 5572 5570 5569 5564 5561 5560 5559 5559 5559 5561 5561 5559 5558 5558 5557 5560 5562 5565 5565 5568 5566 5567 5579 5597 5610 5618 5625 5632 5636 5639 5644 5648 5652 5657 5662 5663
5577 5573 5571 5566 5560 5557 5556 5555 5553 5551 5548 5544 5541 5540 5539 5539 5540 5539 5539 5537 5538 5538 5538 5539 5542 5545 5545 5545 5544 5545 5563 5579 5589 5607 5614 5616 5621 5629 5637 5642 5645 5651 5657
5564 5561 5558 5552 5548 5543 5540 5537 5534 5529 5527 5523 5521 5519 5520 5519 5520 5519 5519 5518 5518 5519 5520 5520 5522 5523 5525 5526 5523 5530 5526 5532 5555 5574 5596 5604 5606 5610 5618 5629 5635 5641 5647
5552 5547 5542 5537 5532 5529 5525 5522 5517 5513 5509 5506 5504 5502 5500 5500 5500 5500 5499 5499 5498 5498 5499 5500 5501 5502 5504 5505 5506 5505 5505 5517 5525 5536 5562 5576 5582 5594 5602 5610 5620 5630 5637
5540 5534 5529 5523 5519 5515 5511 5506 5501 5496 5493 5489 5486 5485 5483 5482 5482 5481 5481 5480 5480 5479 5480 5481 5482 5484 5485 5487 5489 5492 5493 5496 5501 5505 5519 5543 5549 5571 5579 5590 5604 5613 5620